ROMMA est une association bénévole à but non lucratif. Votre soutien est indispensable : ADHERER à ROMMA ou FAIRE un DON

Le Versoud - (38, Isère)

Vallée du Grésivaudan (220 m)   Longitude: 05° 51' 44" E   Latitude: 45° 13' 06" N Station partenaire n°6
 

Détail journalier du     <<     >>

Température Humidité Pression Vent Dir Rafale Dir. rafale Ensol.
Heure (°C) (%) (hPa) (km/h) (km/h) (min)
01:00 25.364101400---0
02:00 23.977101400---0
03:00 23.379101400---0
04:00 22.681101400---0
05:00 22.282101400---0
06:00 21.684101400---0
07:00 21.384101400---0
08:00 23.278101400---20
09:00 26.366101400---60
10:00 27.957101400---60
11:00 30.349101302O60
12:00 32.149101303O60
13:00 33.642101208OSO30
14:00 35.14010121OSO13OSO0
15:00 35.84010112OSO13OSO50
16:00 36.83710104ONO13ONO60
17:00 36.83810105O15O55
18:00 36.93510093ONO15O20
19:00 35.24110093SSO15SO20
20:00 32.6451010010ENE0
21:00 30.94710112---34NE15
22:00 29.34910125NE32NE0
23:00 27.75410134NE24ENE0
minuit 26.85810131NE19NE0

Graphique du 25-07-2019

 

Serveur OMMA